Kiev, Ukraine

4:12 PM EET on February 22, 2017 (GMT +0200)
Kiev

Weather History for 33345 - June, 2013

Change the Weather History Date:

Tuesday, June 4, 2013

  Actual Average Record
Temperature  
Mean Temperature 65 °F -  
Max Temperature 75 °F - - ()
Min Temperature 55 °F - - ()
Growing Degree Days 15 (Base 50)    
Moisture  
Dew Point 57 °F    
Average Humidity 79    
Maximum Humidity 100    
Minimum Humidity 44    
Precipitation  
Precipitation 0.01 in 0.10 in - ()
Sea Level Pressure  
Sea Level Pressure 29.85 in    
Wind  
Wind Speed 5 mph ()    
Max Wind Speed 16 mph    
Max Gust Speed -    
Visibility 6.2 miles    
Events Rain , Thunderstorm    
T = Trace of Precipitation, MM = Missing Value Source: Averaged Metar Reports

Daily Weather History Graph

Daily Weather History Graph

Search for Another Location

Airport or City:

Trip Planner

Search our weather history database for the weather conditions in past years. The results will help you decide how hot, cold, wet, or windy it might be!

Date:

Astronomy

Jun. 04, 2013 Rise Set
Actual Time 4:50 AM EEST 9:03 PM EEST
Civil Twilight 4:06 AM EEST 9:47 PM EEST
Nautical Twilight 3:02 AM EEST 10:51 PM EEST
Astronomical Twilight 1:28 AM EEST 12:24 AM EEST
Moon 2:32 AM EEST (6/4) 4:53 PM EEST (6/4)
Length of Visible Light 17h 41m
Length of Day
16h 13m
Waning Crescent, 16% of the Moon is Illuminated
Jun 4
Waning Crescent
Jun 8
New
Jun 16
First Quarter
Jun 23
Full
Jun 30
Last Quarter

Hourly Weather History & Observations

Time (EEST) Temp. Dew Point Humidity Pressure Visibility Wind Dir Wind Speed Gust Speed Precip Events Conditions
12:00 AM 58 °F 54 °F 84% 29.83 in 12 mi Calm Calm - -  
12:00 AM 57.2 °F 55.4 °F 94% 29.83 in 5.6 mi East 6.7 mph - N/A   Unknown
12:30 AM 55.4 °F 55.4 °F 100% 29.83 in 3.7 mi East 6.7 mph - N/A   Unknown
1:00 AM 55.4 °F 55.4 °F 100% 29.83 in 3.7 mi East 4.5 mph - N/A   Unknown
1:30 AM 55.4 °F 55.4 °F 100% 29.80 in 2.5 mi East 6.7 mph - N/A   Mist
2:00 AM 55.4 °F 55.4 °F 100% 29.83 in 3.7 mi East 6.7 mph - N/A   Unknown
2:30 AM 55.4 °F 55.4 °F 100% 29.83 in 4.3 mi East 6.7 mph - N/A   Unknown
3:00 AM 57 °F 54 °F 88% 29.83 in 6 mi Calm Calm - -  
3:00 AM 57.2 °F 55.4 °F 94% 29.83 in 3.7 mi East 6.7 mph - N/A   Unknown
3:30 AM 55.4 °F 55.4 °F 100% 29.83 in - East 4.5 mph - N/A   Mist
4:00 AM 55.4 °F 55.4 °F 100% 29.83 in 1.7 mi East 6.7 mph - N/A   Mist
4:30 AM 57.2 °F 57.2 °F 100% 29.83 in 5.6 mi East 4.5 mph - N/A   Unknown
5:00 AM 57.2 °F 55.4 °F 94% 29.83 in - East 6.7 mph - N/A   Clear
5:30 AM 57.2 °F 57.2 °F 100% 29.83 in 5.6 mi East 4.5 mph - N/A   Unknown
6:00 AM 57 °F 56 °F 95% 29.84 in 2 mi Calm Calm - -   Mist
6:00 AM 57.2 °F 57.2 °F 100% 29.83 in 5.6 mi East 4.5 mph - N/A   Unknown
6:30 AM 59.0 °F 57.2 °F 94% 29.83 in - East 4.5 mph - N/A   Clear
7:00 AM 59.0 °F 57.2 °F 94% 29.83 in - East 6.7 mph - N/A   Clear
7:30 AM 60.8 °F 57.2 °F 88% 29.83 in - East 4.5 mph - N/A   Clear
8:00 AM 60.8 °F 57.2 °F 88% 29.83 in - East 6.7 mph - N/A   Clear
8:30 AM 62.6 °F 59.0 °F 88% 29.86 in - East 6.7 mph - N/A   Clear
9:00 AM 64 °F 59 °F 80% 29.85 in 6 mi SSE 2.2 mph - -   Partly Cloudy
9:00 AM 64.4 °F 59.0 °F 83% 29.86 in - ESE 6.7 mph - N/A   Clear
9:30 AM 66.2 °F 59.0 °F 78% 29.86 in - ESE 6.7 mph - N/A   Clear
10:00 AM 68.0 °F 59.0 °F 73% 29.86 in - ESE 6.7 mph - N/A   Clear
10:30 AM 68.0 °F 59.0 °F 73% 29.86 in 6.2 mi ESE 4.5 mph - N/A   Mostly Cloudy
11:00 AM 68.0 °F 59.0 °F 73% 29.86 in 6.2 mi East 6.7 mph - N/A   Mostly Cloudy
11:30 AM 69.8 °F 57.2 °F 64% 29.86 in 6.2 mi East 6.7 mph - N/A   Mostly Cloudy
12:00 PM 70 °F 58 °F 56% 29.85 in 12 mi ENE 2.2 mph - -   Mostly Cloudy
12:00 PM 69.8 °F 57.2 °F 64% 29.86 in 6.2 mi East 6.7 mph - N/A   Mostly Cloudy
12:30 PM 69.8 °F 57.2 °F 64% 29.86 in 6.2 mi ENE 4.5 mph - N/A   Mostly Cloudy
1:00 PM 71.6 °F 59.0 °F 64% 29.86 in 6.2 mi East 4.5 mph - N/A   Mostly Cloudy
1:30 PM 69.8 °F 57.2 °F 64% 29.86 in 6.2 mi East 4.5 mph - N/A Rain Light Rain Showers
2:00 PM 71.6 °F 57.2 °F 60% 29.86 in 6.2 mi East 6.7 mph - N/A   Mostly Cloudy
2:30 PM 73.4 °F 57.2 °F 57% 29.86 in 6.2 mi NE 4.5 mph - N/A   Mostly Cloudy
3:00 PM 74 °F 57 °F 44% 29.83 in 12 mi NE 8.9 mph - -   Mostly Cloudy
3:00 PM 71.6 °F 55.4 °F 57% 29.86 in 6.2 mi NE 11.2 mph - N/A   Mostly Cloudy
3:22 PM 71.6 °F 59.0 °F 64% 29.86 in 6.2 mi NE 15.7 mph - N/A Thunderstorm Mostly Cloudy
3:30 PM 73.4 °F 57.2 °F 57% 29.86 in 6.2 mi NE 13.4 mph - N/A Thunderstorm Mostly Cloudy
4:00 PM 69.8 °F 55.4 °F 60% 29.86 in 6.2 mi ENE 13.4 mph - N/A   Mostly Cloudy
4:30 PM 69.8 °F 55.4 °F 60% 29.83 in 6.2 mi ENE 11.2 mph - N/A   Mostly Cloudy
5:00 PM 71.6 °F 57.2 °F 60% 29.86 in 6.2 mi ENE 6.7 mph - N/A   Mostly Cloudy
5:30 PM 71.6 °F 57.2 °F 60% 29.86 in 6.2 mi ENE 4.5 mph - N/A   Mostly Cloudy
6:00 PM 71 °F 57 °F 51% 29.84 in 12 mi NE 6.7 mph - -   Partly Cloudy
6:00 PM 71.6 °F 57.2 °F 60% 29.86 in 6.2 mi NE 6.7 mph - N/A   Mostly Cloudy
6:20 PM 68.0 °F 57.2 °F 68% 29.86 in 6.2 mi East 11.2 mph - N/A Thunderstorm Mostly Cloudy
6:30 PM 68.0 °F 57.2 °F 68% 29.86 in 6.2 mi ENE 11.2 mph - N/A Rain , Thunderstorm Light Rain Showers
7:00 PM 66.2 °F 59.0 °F 78% 29.86 in 6.2 mi East 4.5 mph - N/A Rain , Thunderstorm Light Rain Showers
7:30 PM 66.2 °F 59.0 °F 78% 29.86 in 6.2 mi North 6.7 mph - N/A Thunderstorm Mostly Cloudy
7:53 PM 66.2 °F 59.0 °F 78% 29.86 in 6.2 mi Calm Calm - N/A   Mostly Cloudy
8:00 PM 66.2 °F 57.2 °F 73% 29.86 in 6.2 mi Variable 2.2 mph - N/A   Mostly Cloudy
8:30 PM 66.2 °F 57.2 °F 73% 29.86 in 6.2 mi Calm Calm - N/A   Mostly Cloudy
9:00 PM 64 °F 60 °F 81% 29.87 in 12 mi Calm Calm - - Rain Light Rain
9:00 PM 64.4 °F 60.8 °F 88% 29.86 in 6.2 mi Calm Calm - N/A   Mostly Cloudy
9:30 PM 64.4 °F 60.8 °F 88% 29.89 in 5.6 mi Calm Calm - N/A   Unknown
10:00 PM 64.4 °F 60.8 °F 88% 29.89 in - Calm Calm - N/A   Clear
10:30 PM 62.6 °F 60.8 °F 94% 29.89 in - Variable 2.2 mph - N/A   Clear
11:00 PM 62.6 °F 59.0 °F 88% 29.89 in - Variable 2.2 mph - N/A   Clear
11:30 PM 62.6 °F 59.0 °F 88% 29.89 in - Calm Calm - N/A   Clear